FW8420 Weather Reports


time (UTC)temp
C
wind
direction
speed
KPH
gust
KPH
rain 1hr
cm
rain 24hr
cm
rain mn
cm
humidity
%
barometer
mb
20260506115403 13 270 3.2 11.3 0.00 0.00 0.00 50 1012.7
20260506114504 13 212 1.6 6.4 0.00 0.00 0.00 49 1012.8
20260506113604 13 249 1.6 11.3 0.00 0.00 0.00 51 1012.6
20260506112918 12 261 4.8 11.3 0.00 0.00 0.00 54 1012.9
20260506111803 13 225 3.2 9.7 0.00 0.00 0.00 53 1012.9
20260506110904 12 286 4.8 12.9 0.00 0.03 0.00 57 1012.8
20260506110218 12 279 4.8 9.7 0.00 0.03 0.00 58 1012.8
20260506105404 12 281 4.8 11.3 0.00 0.03 0.00 58 1012.9
20260506104719 12 273 3.2 11.3 0.00 0.10 0.00 57 1012.9
20260506103604 12 275 4.8 9.7 0.00 0.10 0.00 56 1012.9
20260506102917 12 276 4.8 9.7 0.00 0.10 0.00 57 1013.0
20260506101803 12 278 3.2 12.9 0.00 0.10 0.00 58 1013.1
20260506100908 11 275 4.8 12.9 0.00 0.10 0.00 57 1013.2
20260506100005 11 263 4.8 11.3 0.00 0.10 0.00 58 1013.2
20260506095404 11 270 4.8 9.7 0.00 0.10 0.00 56 1013.4
20260506094504 11 260 4.8 9.7 0.00 0.10 0.00 56 1013.3
20260506093818 11 257 4.8 9.7 0.00 0.10 0.00 56 1013.3
20260506092704 11 256 4.8 9.7 0.00 0.10 0.00 58 1013.4
20260506091805 11 227 3.2 9.7 0.00 0.10 0.00 57 1013.4
20260506090903 12 235 3.2 9.7 0.00 0.10 0.00 55 1013.4
20260506090004 12 176 1.6 6.4 0.00 0.10 0.00 51 1013.6
20260506085403 12 97 1.6 4.8 0.00 0.10 0.00 54 1013.6
20260506084504 12 83 1.6 4.8 0.00 0.10 0.00 58 1013.6
20260506083604 11 70 1.6 3.2 0.00 0.10 0.00 58 1013.5
20260506082704 11 93 1.6 3.2 0.00 0.10 0.00 61 1013.7
20260506081804 10 77 1.6 3.2 0.00 0.10 0.00 64 1013.8
20260506080905 10 162 1.6 4.8 0.00 0.10 0.00 64 1013.9
20260506072918 8 218 1.6 3.2 0.00 0.10 0.00 63 1013.8
20260506071804 9 219 0.0 3.2 0.00 0.10 0.00 64 1013.8
20260506071119 9 218 0.0 3.2 0.00 0.10 0.00 64 1014.1
20260506061804 7 173 0.0 1.6 0.00 0.10 0.00 78 1014.0
20260506060904 6 149 0.0 1.6 0.00 0.10 0.00 78 1014.0
20260506050904 6 96 0.0 1.6 0.00 0.10 0.00 79 1014.0
20260506044503 5 124 1.6 3.2 0.00 0.10 0.00 80 1014.0
20260506043604 5 105 0.0 1.6 0.00 0.10 0.00 81 1014.0
20260506042917 5 113 1.6 3.2 0.00 0.10 0.00 81 1014.1
20260506041804 5 108 1.6 3.2 0.00 0.10 0.00 82 1014.1
20260506040903 5 88 0.0 3.2 0.00 0.10 0.00 84 1014.1
20260506040004 3 87 0.0 3.2 0.00 0.10 0.00 85 1014.2
20260506035403 3 85 1.6 3.2 0.00 0.10 0.00 85 1014.2
20260506034503 3 81 1.6 3.2 0.00 0.10 0.00 85 1014.0
20260506033604 3 74 0.0 1.6 0.00 0.10 0.00 85 1014.4
20260506032703 4 132 0.0 1.6 0.00 0.10 0.00 84 1014.3
20260506032020 4 120 0.0 1.6 0.00 0.10 0.00 84 1014.6
20260506030903 4 91 0.0 3.2 0.00 0.10 0.00 84 1014.4
20260506030004 5 122 1.6 3.2 0.00 0.10 0.00 84 1014.4
20260506025404 5 134 1.6 1.6 0.00 0.10 0.00 85 1014.4
20260506024503 5 116 1.6 3.2 0.00 0.10 0.00 84 1014.3
20260506023817 5 117 0.0 3.2 0.00 0.10 0.00 84 1014.5
20260506022704 5 150 0.0 3.2 0.00 0.10 0.00 84 1014.4
20260506021804 5 157 0.0 3.2 0.00 0.10 0.00 84 1014.5
20260506020904 5 125 1.6 3.2 0.00 0.10 0.00 84 1014.4
20260506020004 5 132 0.0 1.6 0.00 0.10 0.00 85 1014.5
20260506015403 5 108 0.0 3.2 0.00 0.10 0.00 84 1014.3
20260506014503 5 114 1.6 3.2 0.00 0.10 0.00 83 1014.6
20260506013603 5 169 1.6 3.2 0.00 0.10 0.00 82 1014.7
20260506012704 5 116 0.0 1.6 0.00 0.10 0.00 82 1014.6
20260506011803 6 63 0.0 1.6 0.00 0.10 0.00 81 1014.7
20260506011118 5 78 0.0 1.6 0.00 0.10 0.00 82 1014.7
20260506010218 6 70 0.0 3.2 0.00 0.10 0.00 81 1014.6
20260506005404 6 27 0.0 4.8 0.00 0.10 0.00 82 1014.7
20260506004719 6 250 0.0 4.8 0.00 0.10 0.00 83 1014.8
20260506003604 5 202 0.0 1.6 0.00 0.10 0.00 84 1014.7
20260506002917 5 203 0.0 3.2 0.00 0.10 0.00 83 1015.0
20260506002017 5 0 0.0 0.0 0.00 0.10 0.00 83 1014.8
20260506000908 6 0 0.0 0.0 0.00 0.10 0.00 83 1014.8
20260506000003 5 253 0.0 1.6 0.00 0.10 0.00 82 1015.2
20260505235403 6 253 0.0 1.6 0.00 0.10 0.00 81 1015.2
20260505234503 6 0 0.0 3.2 0.00 0.10 0.00 80 1015.3
20260505233603 6 245 0.0 3.2 0.00 0.10 0.00 79 1015.1
20260505232704 6 247 0.0 1.6 0.00 0.10 0.00 78 1015.0
20260505232017 7 273 0.0 3.2 0.00 0.10 0.00 77 1015.4
20260505230903 8 285 3.2 9.7 0.00 0.10 0.00 78 1015.2
20260505230220 8 282 4.8 12.9 0.00 0.10 0.00 78 1015.5
20260505225404 8 289 4.8 12.9 0.00 0.10 0.10 78 1015.2
20260505224503 8 291 4.8 12.9 0.00 0.10 0.10 78 1015.5
20260505223603 8 276 4.8 11.3 0.00 0.10 0.10 78 1015.5
20260505222704 8 285 4.8 9.7 0.00 0.10 0.10 78 1015.4
20260505222018 8 275 4.8 12.9 0.00 0.10 0.10 78 1015.7
20260505220903 8 289 4.8 12.9 0.00 0.10 0.10 79 1015.5
20260505220003 8 266 4.8 11.3 0.00 0.10 0.10 79 1015.8
20260505215403 7 276 4.8 11.3 0.00 0.10 0.10 79 1015.6
20260505214503 8 278 4.8 9.7 0.00 0.10 0.10 78 1015.8
20260505213604 8 283 3.2 9.7 0.00 0.10 0.10 79 1015.9
20260505212703 8 289 4.8 11.3 0.00 0.10 0.10 78 1015.7
20260505211803 8 289 6.4 11.3 0.00 0.10 0.10 77 1015.8
20260505210903 8 280 6.4 14.5 0.00 0.10 0.10 77 1015.7
20260505210004 8 280 6.4 14.5 0.00 0.10 0.10 76 1015.7
20260505205403 8 272 6.4 14.5 0.00 0.10 0.10 76 1015.5
20260505204717 9 261 6.4 14.5 0.00 0.10 0.10 76 1015.5
20260505203603 9 279 8.0 16.1 0.00 0.10 0.10 76 1015.5
20260505202703 9 272 6.4 16.1 0.00 0.10 0.10 75 1015.5
20260505202018 9 284 8.0 16.1 0.00 0.10 0.10 74 1015.4
20260505200903 9 276 8.0 16.1 0.00 0.10 0.10 72 1015.7
20260505200003 9 277 8.0 17.7 0.00 0.10 0.10 70 1015.5
20260505195403 10 273 8.0 16.1 0.00 0.10 0.10 71 1015.6
20260505194503 10 290 8.0 16.1 0.00 0.10 0.10 69 1015.6
20260505193603 10 282 8.0 16.1 0.00 0.10 0.10 70 1015.8
20260505192704 10 276 6.4 12.9 0.00 0.10 0.10 68 1015.5
20260505191804 10 280 6.4 14.5 0.00 0.10 0.10 68 1015.4
20260505190903 10 272 6.4 14.5 0.00 0.10 0.10 69 1015.3
20260505190004 11 274 6.4 14.5 0.00 0.10 0.10 70 1015.4
20260505185408 11 272 6.4 12.9 0.00 0.10 0.10 69 1015.5
20260505184503 11 281 6.4 12.9 0.00 0.10 0.10 69 1015.5
20260505183604 11 283 8.0 16.1 0.00 0.10 0.10 68 1015.3
20260505182703 11 267 6.4 17.7 0.00 0.10 0.10 68 1015.4
20260505182017 11 260 6.4 16.1 0.00 0.10 0.10 67 1015.4
20260505180908 12 251 8.0 16.1 0.00 0.10 0.10 66 1015.4
20260505180004 12 269 6.4 12.9 0.00 0.10 0.10 64 1015.5
20260505175404 12 254 6.4 12.9 0.00 0.10 0.10 64 1015.4
20260505174503 12 266 6.4 12.9 0.00 0.10 0.10 66 1015.6
20260505173604 12 275 6.4 12.9 0.00 0.10 0.10 67 1015.4
20260505172704 12 271 6.4 14.5 0.00 0.10 0.10 66 1015.5
20260505171804 12 270 4.8 12.9 0.00 0.10 0.10 65 1015.4
20260505171117 13 245 4.8 14.5 0.00 0.10 0.10 63 1015.5
20260505170003 13 262 4.8 12.9 0.00 0.10 0.10 63 1015.7
20260505165403 13 239 4.8 14.5 0.00 0.10 0.10 62 1015.5
20260505164504 13 246 4.8 14.5 0.00 0.10 0.10 61 1015.7
20260505163603 13 272 3.2 11.3 0.00 0.10 0.10 60 1015.6
20260505162703 13 283 3.2 11.3 0.00 0.10 0.10 60 1015.6
20260505161804 13 264 4.8 16.1 0.00 0.10 0.10 61 1015.6
20260505160903 13 246 4.8 14.5 0.00 0.10 0.10 60 1015.6
20260505152703 13 251 4.8 16.1 0.00 0.10 0.10 64 1015.8
20260505151804 13 257 4.8 14.5 0.00 0.10 0.10 63 1015.6
20260505150903 13 244 4.8 12.9 0.00 0.10 0.10 64 1015.7
20260505130217 12 273 4.8 11.3 0.00 0.10 0.10 77 1016.2
20260505124503 11 254 3.2 9.7 0.00 0.10 0.10 81 1016.3
20260505123603 11 285 3.2 6.4 0.00 0.10 0.10 84 1016.4
20260505122704 10 271 3.2 6.4 0.00 0.10 0.10 85 1016.1
20260505122018 10 281 3.2 6.4 0.00 0.10 0.10 85 1016.3
20260505120903 10 284 4.8 11.3 0.03 0.10 0.10 87 1016.4
20260505120004 10 301 6.4 14.5 0.03 0.10 0.10 87 1016.4